Tracking 30922 objects as of 2-Jul-2025
HD Live streaming from Space Station
objects crossing your sky now

BREEZE-M DEB (TANK)

Track BREEZE-M DEB (TANK) now!
10-day predictions


NORAD ID: 44627
Int'l Code: 2019-067D
Perigee: 369.7 km
Apogee: 18,701.7 km
Inclination: 50.4 °
Period: 332.8 minutes
Semi major axis: 15906 km
RCS: Unknown
Launch date: October 9, 2019
Source: Commonwealth of Independent States (former USSR) (CIS)
Launch site: TYURATAM MISSILE AND SPACE COMPLEX (TTMTR)

Note: This is SATELLITE DEBRIS
Your satellite tracking list
Your tracking list is empty




NASA's NSSDC Master Catalog

Two Line Element Set (TLE):
1 44627U 19067D   25182.58314667  .00001751  00000-0  10647-2 0  9998
2 44627  50.4156  66.6003 5762345  58.5534 345.3137  4.32746280 88692
Source of the keplerian elements: AFSPC